| time (UTC) | temp F | wind direction | speed knots | gust knots | rain 1hr in | rain 24hr in | rain mn in | humidity % | barometer mb |
| 20260507133005 | 76 | 203 | 0.9 | 3.5 | 0.00 | 0.00 | 0.00 | 46 | 1011.8 |
| 20260507131503 | 75 | 225 | 0.0 | 4.3 | 0.00 | 0.00 | 0.00 | 49 | 1011.8 |
| 20260507130005 | 75 | 292 | 0.9 | 2.6 | 0.00 | 0.00 | 0.00 | 48 | 1011.8 |
| 20260507124502 | 77 | 224 | 1.7 | 4.3 | 0.00 | 0.00 | 0.00 | 45 | 1011.8 |
| 20260507121502 | 77 | 265 | 1.7 | 5.2 | 0.00 | 0.00 | 0.00 | 46 | 1011.9 |
| 20260507120005 | 76 | 207 | 0.9 | 5.2 | 0.00 | 0.05 | 0.00 | 47 | 1012.0 |
| 20260507114503 | 74 | 247 | 0.0 | 0.9 | 0.00 | 0.16 | 0.00 | 50 | 1012.2 |
| 20260507113006 | 76 | 237 | 2.6 | 5.2 | 0.00 | 0.21 | 0.00 | 48 | 1012.3 |
| 20260507111503 | 75 | 231 | 3.5 | 5.2 | 0.00 | 0.21 | 0.00 | 50 | 1012.4 |
| 20260507110005 | 74 | 213 | 3.5 | 5.2 | 0.00 | 0.21 | 0.00 | 50 | 1012.5 |
| 20260507104502 | 74 | 185 | 4.3 | 6.1 | 0.00 | 0.21 | 0.00 | 51 | 1012.7 |
| 20260507103005 | 74 | 247 | 0.0 | 0.9 | 0.00 | 0.21 | 0.00 | 52 | 1012.8 |
| 20260507101502 | 74 | 218 | 1.7 | 4.3 | 0.00 | 0.21 | 0.00 | 52 | 1013.0 |
| 20260507100005 | 73 | 261 | 1.7 | 4.3 | 0.00 | 0.21 | 0.00 | 54 | 1013.0 |
| 20260507094502 | 72 | 257 | 1.7 | 3.5 | 0.00 | 0.24 | 0.00 | 55 | 1013.1 |
| 20260507093004 | 72 | 205 | 4.3 | 6.1 | 0.00 | 0.24 | 0.00 | 55 | 1013.0 |
| 20260507091503 | 71 | 259 | 2.6 | 7.0 | 0.00 | 0.24 | 0.00 | 55 | 1012.9 |
| 20260507090005 | 71 | 251 | 5.2 | 5.2 | 0.00 | 0.24 | 0.00 | 56 | 1012.9 |
| 20260507084503 | 71 | 265 | 1.7 | 3.5 | 0.00 | 0.24 | 0.00 | 59 | 1013.0 |
| 20260507083005 | 69 | 272 | 3.5 | 7.0 | 0.00 | 0.24 | 0.00 | 60 | 1013.0 |
| 20260507081503 | 69 | 284 | 2.6 | 5.2 | 0.00 | 0.24 | 0.00 | 62 | 1012.8 |
| 20260507074503 | 67 | 0 | 0.0 | 0.0 | 0.00 | 0.24 | 0.00 | 69 | 1012.9 |
| 20260507073004 | 66 | 283 | 0.9 | 1.7 | 0.00 | 0.24 | 0.00 | 75 | 1013.0 |
| 20260507071503 | 64 | 0 | 0.0 | 0.0 | 0.00 | 0.24 | 0.00 | 78 | 1013.0 |
| 20260507070009 | 63 | 203 | 0.0 | 2.6 | 0.00 | 0.24 | 0.00 | 81 | 1012.7 |
| 20260507064502 | 61 | 0 | 0.0 | 0.0 | 0.00 | 0.24 | 0.00 | 88 | 1012.7 |
| 20260506221503 | 56 | 0 | 0.0 | 0.0 | 0.00 | 0.28 | 0.00 | 91 | 1010.4 |
| 20260506220005 | 56 | 0 | 0.0 | 0.0 | 0.00 | 0.28 | 0.00 | 91 | 1010.3 |
| 20260506214503 | 56 | 0 | 0.0 | 0.0 | 0.00 | 0.28 | 0.28 | 91 | 1010.2 |
| 20260506213005 | 56 | 0 | 0.0 | 0.0 | 0.00 | 0.28 | 0.28 | 91 | 1010.2 |
| 20260506211503 | 57 | 0 | 0.0 | 0.0 | 0.00 | 0.28 | 0.28 | 90 | 1010.2 |
| 20260506210005 | 58 | 0 | 0.0 | 0.0 | 0.00 | 0.28 | 0.28 | 90 | 1010.2 |
| 20260506204504 | 58 | 0 | 0.0 | 0.0 | 0.00 | 0.28 | 0.28 | 90 | 1010.3 |
| 20260506203006 | 58 | 0 | 0.0 | 0.0 | 0.00 | 0.28 | 0.28 | 90 | 1010.0 |
| 20260506201503 | 58 | 0 | 0.0 | 0.0 | 0.00 | 0.28 | 0.28 | 89 | 1010.0 |
| 20260506200005 | 58 | 0 | 0.0 | 0.0 | 0.00 | 0.28 | 0.28 | 89 | 1009.7 |
| 20260506194503 | 59 | 0 | 0.0 | 0.0 | 0.00 | 0.28 | 0.28 | 89 | 1009.4 |
| 20260506193005 | 59 | 0 | 0.0 | 0.0 | 0.00 | 0.28 | 0.28 | 88 | 1009.3 |
| 20260506191503 | 60 | 0 | 0.0 | 0.0 | 0.00 | 0.28 | 0.28 | 87 | 1009.0 |
| 20260506190007 | 61 | 0 | 0.0 | 0.0 | 0.00 | 0.28 | 0.28 | 87 | 1008.9 |
| 20260506184502 | 62 | 0 | 0.0 | 0.0 | 0.00 | 0.28 | 0.28 | 86 | 1008.9 |
| 20260506183006 | 62 | 0 | 0.0 | 0.0 | 0.00 | 0.28 | 0.28 | 85 | 1008.7 |
| 20260506181503 | 62 | 0 | 0.0 | 0.0 | 0.00 | 0.28 | 0.28 | 85 | 1008.7 |
| 20260506173006 | 63 | 45 | 0.9 | 2.6 | 0.00 | 0.28 | 0.28 | 82 | 1008.3 |
| 20260506171502 | 65 | 23 | 0.9 | 3.5 | 0.00 | 0.28 | 0.28 | 83 | 1008.4 |
| 20260506170005 | 65 | 0 | 0.0 | 0.0 | 0.00 | 0.28 | 0.28 | 84 | 1008.2 |
| 20260506164504 | 65 | 112 | 1.7 | 3.5 | 0.00 | 0.28 | 0.28 | 83 | 1008.2 |
| 20260506163006 | 66 | 117 | 2.6 | 4.3 | 0.00 | 0.28 | 0.28 | 81 | 1008.0 |
| 20260506161503 | 68 | 0 | 0.0 | 0.0 | 0.00 | 0.28 | 0.28 | 77 | 1008.2 |
| 20260506160005 | 68 | 0 | 0.0 | 0.0 | 0.00 | 0.28 | 0.28 | 77 | 1008.3 |
| 20260506154504 | 69 | 94 | 3.5 | 6.1 | 0.00 | 0.28 | 0.28 | 79 | 1008.1 |
| 20260506153005 | 70 | 116 | 2.6 | 5.2 | 0.00 | 0.28 | 0.28 | 79 | 1008.1 |
| 20260506151503 | 68 | 93 | 1.7 | 5.2 | 0.00 | 0.28 | 0.28 | 79 | 1008.1 |
| 20260506150007 | 69 | 112 | 1.7 | 3.5 | 0.00 | 0.28 | 0.28 | 77 | 1008.2 |
| 20260506144503 | 70 | 0 | 0.0 | 0.0 | 0.00 | 0.28 | 0.28 | 74 | 1008.1 |
| 20260506143005 | 71 | 0 | 0.0 | 0.0 | 0.00 | 0.28 | 0.28 | 74 | 1008.2 |
| 20260506141503 | 70 | 183 | 1.7 | 4.3 | 0.00 | 0.28 | 0.28 | 78 | 1008.3 |
| 20260506140006 | 70 | 90 | 0.0 | 1.7 | 0.00 | 0.28 | 0.28 | 82 | 1008.5 |
| 20260506134504 | 67 | 0 | 0.0 | 0.0 | 0.00 | 0.28 | 0.28 | 83 | 1008.8 |